Weather in Belonosovo

Russia / Chelyabinsk Oblast     54°48′42″N   61°26′41″E
temp.,
°C
wind,
m/s
gust,
m/s
humid.,
%
clouds,
%
prec.,
mm/h
press.,
hPa
HPBL,
m
16 april, fri
fri1623:00+11w336830 0.0 102034
02:00+11nw227031 0.0 102011
05:00+9nw33740 0.0 102017
08:00+11n37720 0.0 1021201
11:00+13nne677558 0.0 1022724
14:00+10ne6777100 0.0 1023822
17:00+8ne6775100 0.0 1025732
20:00+7ne4773100 0.0 1026563
17 april, sat
sat1723:00+6ne3773100 0.0 1026373
02:00+5ene2473100 0.1 1026155
05:00+5ene1273100 0.1 102629
08:00+5e1272100 0.0 102676
11:00+6ese1268100 0.0 1026165
14:00+7s2261100 0.0 1025589
17:00+10wsw34619 0.0 1023865
20:00+8ssw227449 0.0 102114
18 april, sun
sun1823:00+7nw410685 0.0 1021196
02:00+4nw49715 0.0 1021175
05:00+2wnw410750 0.0 1021199
08:00+5nw612680 0.0 1020692
11:00+8n795494 0.0 10211810
14:00+5nne895086 0.1 10251487
17:00+5nne883579 0.1 10271974
20:00+2ne610435 0.0 1030606
19 april, mon
mon1923:00−1ene59490 0.0 1032524
02:00−1ne37530 0.0 1033394
05:00−2ene47520 0.0 1035435
08:00−2ene56380 0.0 1037811
11:000ne56290 0.0 10371490
14:00+2ne55301 0.0 10371713
17:00+2ne55303 0.0 10371777
20:000ne36430 0.0 1038182
20 april, tue
tue2023:00−2ene25500 0.0 1039168
02:00−2ene22500 0.0 103945
05:00−3ene11490 0.0 103912
08:00−1w11385 0.0 1039385
11:00+2wsw22305 0.0 10381003
14:00+5w33295 0.0 10361142
17:00+7w34285 0.0 10341246
20:00+5wsw33410 0.0 103342